Location: Lugrin
(46.4033°N, 6.6674°E)
Time: 14:52:42
(UTC+00:00)

Resurs 01 Rocket - Pass Details

Date: 18 September 2020
Orbit: 633 x 645 km, 98.0° (Epoch: 24 October)

Event Time Altitude Azimuth Distance (km) Brightness Sun altitude
Exits shadow 19:19:15 31° 81° (E) 1,142 2.4 -17.8°
Maximum altitude 19:19:45 32° 67° (ENE) 1,121 2.5 -17.9°
Drops below altitude 10° 19:23:42 10° 5° (N) 2,052 4.4 -18.5°
Sets 19:26:05 0° 356° (N) 2,966 5.4 -18.9°
